W0WC Weather Reports


time (UTC)temp
C
wind
direction
speed
KPH
gust
KPH
rain 1hr
cm
rain 24hr
cm
rain mn
cm
humidity
%
barometer
mb
20260502222410 18 322 6.4 9.7 0.00 0.00 0.00 30 1019.9
20260502221911 18 347 4.8 6.4 0.00 0.00 0.00 31 1020.0
20260502221408 18 22 6.4 6.4 0.00 0.00 0.00 28 1019.8
20260502220905 18 287 8.0 11.3 0.00 0.00 0.00 31 1020.0
20260502220400 18 344 8.0 11.3 0.00 0.00 0.00 30 1019.9
20260502215857 18 312 8.0 9.7 0.00 0.00 0.00 32 1019.9
20260502215355 18 28 4.8 6.4 0.00 0.00 0.00 31 1019.9
20260502214851 18 6 6.4 9.7 0.00 0.00 0.00 29 1020.0
20260502214348 18 209 6.4 9.7 0.00 0.00 0.00 30 1020.1
20260502213845 18 315 3.2 3.2 0.00 0.00 0.00 32 1020.1
20260502213342 17 301 3.2 4.8 0.00 0.00 0.00 31 1020.2
20260502212841 18 317 17.7 20.9 0.00 0.00 0.00 29 1020.3
20260502212339 17 29 14.5 17.7 0.00 0.00 0.00 31 1020.2
20260502211836 18 13 11.3 12.9 0.00 0.00 0.00 29 1020.2
20260502211331 18 322 4.8 4.8 0.00 0.00 0.00 32 1020.4
20260502210829 18 10 3.2 4.8 0.00 0.00 0.00 31 1020.3
20260502210326 18 1 8.0 12.9 0.00 0.00 0.00 31 1020.6
20260502205824 18 353 3.2 3.2 0.00 0.00 0.00 33 1020.4
20260502205319 18 287 9.7 12.9 0.00 0.00 0.00 30 1020.5
20260502204817 18 17 6.4 9.7 0.00 0.00 0.00 30 1020.5
20260502204314 17 27 1.6 3.2 0.00 0.00 0.00 30 1020.6
20260502203811 18 351 8.0 11.3 0.00 0.00 0.00 30 1020.5
20260502203309 17 281 4.8 4.8 0.00 0.00 0.00 32 1020.6
20260502202809 18 316 20.9 27.4 0.00 0.00 0.00 29 1020.6
20260502202307 18 326 4.8 4.8 0.00 0.00 0.00 29 1020.6
20260502201805 17 30 4.8 6.4 0.00 0.00 0.00 32 1020.6
20260502201300 17 12 4.8 6.4 0.00 0.00 0.00 33 1020.7
20260502200757 17 291 9.7 12.9 0.00 0.00 0.00 31 1020.8
20260502200253 17 329 9.7 14.5 0.00 0.00 0.00 32 1020.9
20260502195751 17 327 9.7 11.3 0.00 0.00 0.00 34 1020.8
20260502195247 17 43 12.9 16.1 0.00 0.00 0.00 32 1020.9
20260502194744 17 21 1.6 1.6 0.00 0.00 0.00 31 1021.0
20260502194241 17 327 11.3 14.5 0.00 0.00 0.00 32 1021.2
20260502193737 17 298 9.7 12.9 0.00 0.00 0.00 34 1021.2
20260502193235 17 343 4.8 9.7 0.00 0.00 0.00 34 1021.2
20260502192734 17 287 8.0 12.9 0.00 0.00 0.00 34 1021.2
20260502192232 18 336 8.0 9.7 0.00 0.00 0.00 33 1021.0
20260502191729 17 357 6.4 9.7 0.00 0.00 0.00 37 1020.8
20260502191227 17 316 19.3 24.1 0.00 0.00 0.00 34 1021.4
20260502190724 17 17 9.7 12.9 0.00 0.00 0.00 34 1021.4
20260502190221 17 346 11.3 12.9 0.00 0.00 0.00 35 1021.3
20260502185721 17 356 6.4 6.4 0.00 0.00 0.00 38 1021.2
20260502185218 17 345 19.3 24.1 0.00 0.00 0.00 34 1021.2
20260502184714 17 282 16.1 22.5 0.00 0.00 0.00 35 1021.3
20260502184210 17 315 6.4 9.7 0.00 0.00 0.00 37 1021.4
20260502183707 16 326 11.3 12.9 0.00 0.00 0.00 36 1021.5
20260502183202 16 105 4.8 6.4 0.00 0.00 0.00 35 1021.5
20260502182658 16 314 9.7 14.5 0.00 0.00 0.00 34 1021.7
20260502182153 16 347 11.3 14.5 0.00 0.00 0.00 36 1021.7
20260502181651 16 340 14.5 16.1 0.00 0.00 0.00 35 1021.5
20260502181150 16 10 6.4 9.7 0.00 0.00 0.00 36 1021.6
20260502180647 16 332 12.9 16.1 0.00 0.00 0.00 35 1021.7
20260502180144 16 17 6.4 11.3 0.00 0.00 0.00 36 1021.8
20260502170108 16 292 16.1 16.1 0.00 0.00 0.00 37 1022.3
20260502164055 15 338 12.9 14.5 0.00 0.00 0.00 38 1022.1
20260502163550 15 359 3.2 4.8 0.00 0.00 0.00 41 1022.2
20260502163048 15 307 9.7 12.9 0.00 0.00 0.00 39 1022.3
20260502162544 15 2 3.2 4.8 0.00 0.00 0.00 39 1022.1
20260502162042 15 320 4.8 6.4 0.00 0.00 0.00 42 1022.1
20260502161538 15 29 6.4 11.3 0.00 0.00 0.00 39 1022.3
20260502161036 15 331 4.8 6.4 0.00 0.00 0.00 40 1022.4
20260502160534 15 348 14.5 16.1 0.00 0.00 0.00 40 1022.3
20260502151947 14 306 9.7 11.3 0.00 0.00 0.00 43 1022.1
20260502151443 13 31 4.8 6.4 0.00 0.00 0.00 44 1022.3
20260502150941 13 322 9.7 12.9 0.00 0.00 0.00 43 1022.1
20260502150438 13 5 11.3 14.5 0.00 0.00 0.00 43 1022.2
20260502130323 8 359 1.6 1.6 0.00 0.00 0.00 78 1021.8
20260502123809 7 352 1.6 1.6 0.00 0.00 0.00 82 1021.3
20260502123306 7 4 1.6 3.2 0.00 0.00 0.00 85 1021.5
20260502122802 7 6 0.0 0.0 0.00 0.00 0.00 88 1021.0
20260502122258 6 3 1.6 1.6 0.00 0.00 0.00 89 1021.0
20260502121757 6 4 0.0 0.0 0.00 0.00 0.00 91 1021.2
20260502121254 6 5 0.0 0.0 0.00 0.00 0.00 92 1021.0
20260502120751 5 6 0.0 0.0 0.00 0.00 0.00 92 1021.0
20260502120248 5 5 0.0 0.0 0.00 0.00 0.00 92 1020.8
20260502115745 5 5 0.0 0.0 0.00 0.00 0.00 92 1020.8
20260502115242 5 0 1.6 1.6 0.00 0.00 0.00 92 1020.8
20260502114738 5 358 0.0 0.0 0.00 0.00 0.00 91 1020.7
20260502114235 5 358 0.0 0.0 0.00 0.00 0.00 91 1020.9
20260502113732 5 358 0.0 0.0 0.00 0.00 0.00 91 1020.6
20260502113230 5 358 0.0 0.0 0.00 0.00 0.00 90 1020.7
20260502112728 5 357 0.0 0.0 0.00 0.00 0.00 89 1020.3
20260502112225 5 356 0.0 0.0 0.00 0.00 0.00 89 1020.1
20260502111722 5 11 0.0 0.0 0.00 0.00 0.00 88 1020.2
20260502111220 6 345 0.0 1.6 0.00 0.00 0.00 88 1020.2
20260502110717 6 359 0.0 0.0 0.00 0.00 0.00 87 1020.1
20260502110215 6 0 0.0 0.0 0.00 0.00 0.00 86 1020.2
20260502105713 6 1 0.0 0.0 0.00 0.00 0.00 85 1020.0
20260502105209 6 1 0.0 0.0 0.00 0.00 0.00 85 1020.0
20260502104707 6 1 0.0 0.0 0.00 0.00 0.00 84 1020.0
20260502104204 6 1 0.0 0.0 0.00 0.00 0.00 83 1019.9
20260502103701 7 1 0.0 0.0 0.00 0.00 0.00 82 1019.9
20260502103159 7 1 0.0 0.0 0.00 0.00 0.00 80 1019.9
20260502102655 7 2 0.0 1.6 0.00 0.00 0.00 80 1019.7
20260502102152 7 10 0.0 0.0 0.00 0.00 0.00 81 1019.6
20260502101650 7 352 3.2 3.2 0.00 0.00 0.00 81 1019.7
20260502101148 7 14 1.6 3.2 0.00 0.00 0.00 82 1019.6
20260502100646 7 348 3.2 3.2 0.00 0.00 0.00 82 1019.6
20260502100144 7 6 3.2 3.2 0.00 0.00 0.00 83 1019.7
20260502091118 7 2 0.0 0.0 0.00 0.00 0.00 85 1019.6
20260502090615 7 2 0.0 0.0 0.00 0.00 0.00 85 1019.2
20260502090113 7 2 0.0 0.0 0.00 0.00 0.00 85 1019.5
20260502071510 8 350 0.0 0.0 0.00 0.00 0.00 79 1019.1
20260502071008 8 4 0.0 0.0 0.00 0.00 0.00 79 1019.1
20260502070506 8 4 0.0 0.0 0.00 0.00 0.00 77 1019.1
20260502070004 8 10 0.0 0.0 0.00 0.00 0.00 77 1019.0
20260502065502 9 10 0.0 0.0 0.00 0.00 0.00 74 1019.0
20260502065000 9 10 0.0 0.0 0.00 0.00 0.00 71 1019.1
20260502064458 10 10 0.0 0.0 0.00 0.00 0.00 72 1018.8
20260502063954 10 11 0.0 0.0 0.00 0.00 0.00 70 1019.1
20260502063452 10 357 0.0 0.0 0.00 0.00 0.00 68 1018.9
20260502062949 10 16 0.0 0.0 0.00 0.00 0.00 68 1019.1
20260502062446 10 347 0.0 1.6 0.00 0.00 0.00 69 1018.9
20260502061945 10 353 0.0 0.0 0.00 0.00 0.00 68 1019.3
20260502061443 10 353 0.0 0.0 0.00 0.00 0.00 65 1019.1
20260502060939 10 348 0.0 0.0 0.00 0.00 0.00 67 1019.2
20260502060434 10 352 0.0 0.0 0.00 0.00 0.00 67 1019.3
20260502055931 9 354 0.0 0.0 0.00 0.00 0.00 68 1019.2
20260502055429 9 354 0.0 0.0 0.00 0.00 0.00 72 1019.0
20260502054929 9 354 0.0 0.0 0.00 0.00 0.00 72 1019.3
20260502054426 9 354 0.0 0.0 0.00 0.00 0.00 72 1019.3
20260502053923 9 354 0.0 0.0 0.00 0.00 0.00 70 1019.4
20260502053420 9 354 0.0 0.0 0.00 0.00 0.00 74 1019.3
20260502052918 9 354 0.0 0.0 0.00 0.00 0.00 76 1019.2
20260502052416 10 350 0.0 0.0 0.00 0.00 0.00 77 1019.3
20260502051914 10 350 0.0 0.0 0.00 0.00 0.00 73 1019.2
20260502051412 10 345 0.0 0.0 0.00 0.00 0.00 75 1019.1
20260502050908 10 352 0.0 0.0 0.00 0.00 0.00 75 1019.2
20260502050405 10 358 0.0 0.0 0.00 0.00 0.00 77 1019.3
20260502045902 10 352 0.0 0.0 0.00 0.00 0.00 76 1019.1
20260502045359 11 354 0.0 0.0 0.00 0.00 0.00 69 1019.1
20260502044856 11 355 0.0 0.0 0.00 0.00 0.00 65 1018.9
20260502044351 11 355 0.0 0.0 0.00 0.00 0.00 66 1019.1
20260502043849 11 332 0.0 0.0 0.00 0.00 0.00 63 1019.1
20260502043346 11 332 0.0 0.0 0.00 0.00 0.00 64 1019.1
20260502042846 11 332 0.0 0.0 0.00 0.00 0.00 65 1019.2
20260502042343 11 355 0.0 0.0 0.00 0.00 0.00 65 1019.0
20260502041840 11 355 0.0 0.0 0.00 0.00 0.00 62 1019.0
20260502041337 11 355 0.0 0.0 0.00 0.00 0.00 69 1019.3
20260502040835 11 354 0.0 0.0 0.00 0.00 0.00 64 1019.1
20260502040332 11 354 0.0 0.0 0.00 0.00 0.00 67 1019.2
20260502035828 11 354 0.0 0.0 0.00 0.00 0.00 69 1019.4
20260502035325 11 15 0.0 0.0 0.00 0.00 0.00 70 1019.2
20260502034822 11 15 0.0 0.0 0.00 0.00 0.00 72 1019.3
20260502034320 11 0 0.0 0.0 0.00 0.00 0.00 71 1019.5
20260502033818 11 16 0.0 0.0 0.00 0.00 0.00 69 1019.1
20260502033316 11 355 0.0 0.0 0.00 0.00 0.00 69 1019.3
20260502032812 11 355 0.0 0.0 0.00 0.00 0.00 72 1019.2
20260502032308 12 355 0.0 0.0 0.00 0.00 0.00 71 1019.2
20260502031806 12 17 0.0 0.0 0.00 0.00 0.00 66 1019.2
20260502031304 12 355 0.0 0.0 0.00 0.00 0.00 63 1019.3
20260502030803 11 355 0.0 0.0 0.00 0.00 0.00 67 1019.2
20260502030300 11 0 0.0 0.0 0.00 0.00 0.00 67 1019.0
20260502025757 11 352 0.0 0.0 0.00 0.00 0.00 68 1018.9
20260502025255 11 354 0.0 0.0 0.00 0.00 0.00 65 1019.2
20260502024752 11 354 0.0 0.0 0.00 0.00 0.00 66 1019.1
20260502024250 11 351 0.0 0.0 0.00 0.00 0.00 61 1019.0
20260502023748 11 349 0.0 0.0 0.00 0.00 0.00 62 1018.9
20260502023245 11 6 0.0 0.0 0.00 0.00 0.00 63 1018.8
20260502022743 11 6 0.0 0.0 0.00 0.00 0.00 61 1018.8
20260502022239 11 6 0.0 0.0 0.00 0.00 0.00 62 1018.8
20260502021736 11 5 0.0 0.0 0.00 0.00 0.00 62 1018.8
20260502021233 12 11 0.0 0.0 0.00 0.00 0.00 61 1018.7
20260502020730 12 356 0.0 0.0 0.00 0.00 0.00 62 1018.6
20260502020228 12 10 0.0 0.0 0.00 0.00 0.00 61 1018.5
20260502015726 12 21 0.0 0.0 0.00 0.00 0.00 61 1018.3
20260502015221 12 21 0.0 0.0 0.00 0.00 0.00 60 1018.5
20260502014720 12 21 0.0 0.0 0.00 0.00 0.00 59 1018.4
20260502014216 12 17 0.0 0.0 0.00 0.00 0.00 56 1018.1
20260502013712 12 14 0.0 0.0 0.00 0.00 0.00 54 1018.2
20260502013208 12 16 0.0 0.0 0.00 0.00 0.00 57 1018.0
20260502012705 13 347 0.0 0.0 0.00 0.00 0.00 59 1018.3
20260502012203 13 359 0.0 0.0 0.00 0.00 0.00 57 1018.0
20260502011659 13 0 0.0 0.0 0.00 0.00 0.00 57 1017.9
20260502011155 13 0 0.0 0.0 0.00 0.00 0.00 54 1017.9
20260502010653 14 0 0.0 0.0 0.00 0.00 0.00 51 1017.8
20260502010149 15 0 0.0 0.0 0.00 0.00 0.00 51 1017.9
20260502005647 15 0 0.0 0.0 0.00 0.00 0.00 50 1017.6
20260502005144 15 0 0.0 0.0 0.00 0.00 0.00 48 1017.4
20260502004640 16 0 0.0 0.0 0.00 0.00 0.00 41 1017.5
20260502004137 16 2 0.0 0.0 0.00 0.00 0.00 42 1017.3
20260502003635 16 356 0.0 0.0 0.00 0.00 0.00 44 1017.5
20260502003132 17 4 0.0 0.0 0.00 0.00 0.00 39 1017.3
20260502002627 17 0 0.0 0.0 0.00 0.00 0.00 39 1017.3
20260502002125 17 359 0.0 0.0 0.00 0.00 0.00 36 1017.1
20260502001623 18 359 0.0 0.0 0.00 0.00 0.00 34 1017.2
20260502001120 18 329 0.0 0.0 0.00 0.00 0.00 33 1017.0
20260502000618 18 308 3.2 3.2 0.00 0.00 0.00 33 1017.1
20260502000115 18 358 0.0 0.0 0.00 0.00 0.00 34 1017.0
20260501235611 18 67 1.6 1.6 0.00 0.00 0.00 35 1017.1
20260501235107 18 343 1.6 3.2 0.00 0.00 0.00 33 1017.1
20260501234603 19 13 0.0 1.6 0.00 0.00 0.00 30 1016.9
20260501234100 18 2 0.0 0.0 0.00 0.00 0.00 32 1017.0
20260501233559 18 3 0.0 0.0 0.00 0.00 0.00 32 1017.1
20260501233055 18 332 1.6 3.2 0.00 0.00 0.00 33 1017.0
20260501232551 18 310 4.8 4.8 0.00 0.00 0.00 31 1017.2
20260501232049 18 8 6.4 6.4 0.00 0.00 0.00 31 1017.2
20260501231546 18 354 4.8 4.8 0.00 0.00 0.00 32 1017.2
20260501231045 18 355 3.2 3.2 0.00 0.00 0.00 32 1017.1
20260501230543 18 325 1.6 3.2 0.00 0.00 0.00 32 1017.2
20260501230041 18 28 3.2 4.8 0.00 0.00 0.00 32 1017.0
20260501225538 18 6 3.2 4.8 0.00 0.00 0.00 32 1017.0
20260501225034 18 46 8.0 11.3 0.00 0.00 0.00 32 1016.9
20260501224532 18 6 6.4 6.4 0.00 0.00 0.00 33 1016.8
20260501224028 18 16 9.7 12.9 0.00 0.00 0.00 32 1016.8
20260501223525 18 12 6.4 6.4 0.00 0.00 0.00 31 1016.9
20260501223021 18 15 1.6 1.6 0.00 0.00 0.00 33 1016.9